カタログに戻る

STARLINK-31764

運用中通信VLEO
NORAD 59653·PAYLOAD·🇺🇸 United States

打ち上げ May 3, 2024 から Cape Canaveral Space Force Station

Loading…

次のパス (今後24時間)

TLE

最新Source: CelesTrak SupGP

元期: Sep 14, 2026, 21:17 UTC

1 59653C 24082Y   26257.88729167 -.00037006  00000+0 -13405-2 0  2573
2 59653  43.0001 151.1386 0001306 265.6372 299.8253 15.27593383    19

AllMySatでSTARLINK-31764をリアルタイム追跡

Download on the App Store